Hourly Weather Stavropol'

Today, 29 October, Thursday

Time Temperature Precipitation Wind Pressure Humidity
00:00 +9°C° 0 mm 6 mps 728 mmHg 90%
01:00 +9°C° 0 mm 6 mps 728 mmHg 90%
02:00 +9°C° 0 mm 5 mps 728 mmHg 90%
03:00 +10°C° 0 mm 5 mps 727 mmHg 89%
04:00 +10°C° 0 mm 5 mps 727 mmHg 89%
05:00 +10°C° 0 mm 5 mps 727 mmHg 89%
06:00 +10°C° 0 mm 6 mps 727 mmHg 88%
07:00 +12°C° 0 mm 5 mps 727 mmHg 86%
08:00 +12°C° 0 mm 5 mps 727 mmHg 83%
09:00 +13°C° 0 mm 5 mps 727 mmHg 81%
10:00 +14°C° 0 mm 5 mps 727 mmHg 74%
11:00 +16°C° 0 mm 5 mps 727 mmHg 67%
12:00 +19°C° 0 mm 5 mps 727 mmHg 59%
13:00 +19°C° 0 mm 6 mps 727 mmHg 59%
14:00 +19°C° 0 mm 6 mps 727 mmHg 58%
15:00 +20°C° 0 mm 6 mps 727 mmHg 58%
16:00 +19°C° 0 mm 6 mps 727 mmHg 65%
17:00 +16°C° 0 mm 5 mps 727 mmHg 72%
18:00 +15°C° 0 mm 5 mps 727 mmHg 80%
19:00 +15°C° 0 mm 5 mps 727 mmHg 83%
20:00 +14°C° 0 mm 4 mps 726 mmHg 86%
21:00 +13°C° 0 mm 4 mps 726 mmHg 89%
22:00 +13°C° 0 mm 4 mps 726 mmHg 90%
23:00 +12°C° 0 mm 3 mps 726 mmHg 91%

Tomorrow, 30 October, Friday

Time Temperature Precipitation Wind Pressure Humidity
00:00 +12°C° 0 mm 3 mps 725 mmHg 93%
01:00 +12°C° 0 mm 3 mps 725 mmHg 93%
02:00 +12°C° 0 mm 3 mps 725 mmHg 93%
03:00 +12°C° 0 mm 3 mps 725 mmHg 93%
04:00 +13°C° 0.1 mm 2 mps 726 mmHg 88%
05:00 +14°C° 0.1 mm 2 mps 726 mmHg 84%
06:00 +14°C° 0.1 mm 2 mps 726 mmHg 79%
07:00 +15°C° 0.4 mm 2 mps 727 mmHg 79%
08:00 +15°C° 0.4 mm 1 mps 727 mmHg 79%
09:00 +15°C° 0.4 mm 1 mps 728 mmHg 79%
10:00 +18°C° 0.1 mm 1 mps 727 mmHg 71%
11:00 +20°C° 0.1 mm 1 mps 727 mmHg 62%
12:00 +21°C° 0.1 mm 1 mps 727 mmHg 54%
13:00 +22°C° 0 mm 1 mps 727 mmHg 52%
14:00 +22°C° 0 mm 1 mps 727 mmHg 49%
15:00 +23°C° 0 mm 1 mps 727 mmHg 47%
16:00 +22°C° 0 mm 1 mps 727 mmHg 52%
17:00 +19°C° 0 mm 2 mps 727 mmHg 57%
18:00 +18°C° 0 mm 2 mps 727 mmHg 62%
19:00 +17°C° 0 mm 2 mps 727 mmHg 65%
20:00 +17°C° 0 mm 2 mps 727 mmHg 68%
21:00 +16°C° 0 mm 2 mps 727 mmHg 72%
22:00 +15°C° 0 mm 2 mps 726 mmHg 74%
23:00 +15°C° 0 mm 1 mps 726 mmHg 75%

Day after tomorrow, 31 October, Saturday

Time Temperature Precipitation Wind Pressure Humidity
00:00 +14°C° 0 mm 1 mps 726 mmHg 77%
01:00 +14°C° 0 mm 1 mps 726 mmHg 78%
02:00 +14°C° 0 mm 1 mps 725 mmHg 79%
03:00 +13°C° 0 mm 0 mps 725 mmHg 80%
04:00 +14°C° 0 mm 1 mps 725 mmHg 80%
05:00 +14°C° 0 mm 1 mps 725 mmHg 80%
06:00 +13°C° 0 mm 1 mps 725 mmHg 80%
07:00 +14°C° 0 mm 2 mps 725 mmHg 78%
08:00 +15°C° 0 mm 2 mps 725 mmHg 75%
09:00 +14°C° 0 mm 3 mps 725 mmHg 73%
10:00 +17°C° 0 mm 3 mps 724 mmHg 66%
11:00 +18°C° 0 mm 3 mps 724 mmHg 59%
12:00 +20°C° 0 mm 4 mps 724 mmHg 53%
13:00 +20°C° 0 mm 4 mps 724 mmHg 53%
14:00 +20°C° 0 mm 4 mps 724 mmHg 53%
15:00 +20°C° 0 mm 4 mps 724 mmHg 54%
16:00 +18°C° 0 mm 4 mps 724 mmHg 62%
17:00 +17°C° 0 mm 4 mps 724 mmHg 70%
18:00 +14°C° 0 mm 3 mps 724 mmHg 78%
19:00 +14°C° 0 mm 3 mps 724 mmHg 81%
20:00 +14°C° 0 mm 2 mps 724 mmHg 84%
21:00 +14°C° 0 mm 2 mps 724 mmHg 86%
22:00 +14°C° 0 mm 1 mps 725 mmHg 85%
23:00 +14°C° 0 mm 1 mps 725 mmHg 83%

1 November, Sunday

Time Temperature Precipitation Wind Pressure Humidity
00:00 +13°C° 0 mm 0 mps 725 mmHg 82%
01:00 +13°C° 0 mm 0 mps 725 mmHg 82%
02:00 +13°C° 0 mm 0 mps 726 mmHg 82%
03:00 +13°C° 0 mm 0 mps 726 mmHg 82%
04:00 +13°C° 0.1 mm 0 mps 726 mmHg 83%
05:00 +13°C° 0.1 mm 0 mps 726 mmHg 83%
06:00 +14°C° 0.1 mm 1 mps 726 mmHg 83%
07:00 +14°C° 0.1 mm 1 mps 726 mmHg 81%
08:00 +15°C° 0.1 mm 2 mps 727 mmHg 79%
09:00 +15°C° 0.1 mm 2 mps 727 mmHg 77%
10:00 +16°C° 0.1 mm 2 mps 727 mmHg 71%
11:00 +18°C° 0.1 mm 2 mps 727 mmHg 65%
12:00 +19°C° 0.1 mm 2 mps 727 mmHg 59%
13:00 +19°C° 0 mm 3 mps 727 mmHg 58%
14:00 +19°C° 0 mm 3 mps 728 mmHg 56%
15:00 +20°C° 0 mm 3 mps 728 mmHg 54%
16:00 +18°C° 0 mm 3 mps 728 mmHg 62%
17:00 +17°C° 0 mm 3 mps 728 mmHg 69%
18:00 +14°C° 0 mm 3 mps 728 mmHg 76%
19:00 +15°C° 0 mm 2 mps 729 mmHg 79%
20:00 +14°C° 0 mm 2 mps 729 mmHg 81%
21:00 +14°C° 0 mm 2 mps 729 mmHg 84%
22:00 +14°C° 0 mm 2 mps 729 mmHg 84%
23:00 +14°C° 0 mm 2 mps 729 mmHg 84%

2 November, Monday

Time Temperature Precipitation Wind Pressure Humidity
00:00 +14°C° 0 mm 2 mps 729 mmHg 84%
01:00 +13°C° 0 mm 2 mps 729 mmHg 85%
02:00 +13°C° 0 mm 2 mps 729 mmHg 86%
03:00 +13°C° 0 mm 2 mps 729 mmHg 87%
04:00 +12°C° 0 mm 3 mps 729 mmHg 86%
05:00 +12°C° 0 mm 3 mps 729 mmHg 85%
06:00 +12°C° 0 mm 4 mps 729 mmHg 84%
07:00 +12°C° 0 mm 4 mps 730 mmHg 79%
08:00 +13°C° 0 mm 5 mps 730 mmHg 75%
09:00 +13°C° 0 mm 6 mps 730 mmHg 70%
10:00 +15°C° 0 mm 5 mps 730 mmHg 65%
11:00 +16°C° 0 mm 5 mps 730 mmHg 59%
12:00 +19°C° 0 mm 5 mps 730 mmHg 54%
13:00 +19°C° 0 mm 4 mps 731 mmHg 53%
14:00 +19°C° 0 mm 4 mps 731 mmHg 52%
15:00 +19°C° 0 mm 3 mps 731 mmHg 51%
16:00 +18°C° 0 mm 3 mps 731 mmHg 53%
17:00 +17°C° 0 mm 2 mps 731 mmHg 56%
18:00 +16°C° 0 mm 2 mps 732 mmHg 58%
19:00 +15°C° 0 mm 2 mps 732 mmHg 57%
20:00 +14°C° 0 mm 2 mps 732 mmHg 56%
21:00 +14°C° 0 mm 2 mps 732 mmHg 55%
22:00 +13°C° 0 mm 2 mps 732 mmHg 56%
23:00 +13°C° 0 mm 1 mps 732 mmHg 57%

3 November, Tuesday

Time Temperature Precipitation Wind Pressure Humidity
00:00 +13°C° 0 mm 1 mps 732 mmHg 58%
01:00 +12°C° 0 mm 1 mps 732 mmHg 58%
02:00 +12°C° 0 mm 1 mps 732 mmHg 59%
03:00 +12°C° 0 mm 1 mps 733 mmHg 59%
04:00 +12°C° 0 mm 1 mps 733 mmHg 59%
05:00 +11°C° 0 mm 1 mps 733 mmHg 59%
06:00 +11°C° 0 mm 1 mps 733 mmHg 59%
07:00 +12°C° 0 mm 2 mps 733 mmHg 56%
08:00 +13°C° 0 mm 2 mps 733 mmHg 52%
09:00 +13°C° 0 mm 3 mps 733 mmHg 49%
10:00 +14°C° 0 mm 3 mps 733 mmHg 45%
11:00 +17°C° 0 mm 4 mps 733 mmHg 41%
12:00 +17°C° 0 mm 5 mps 732 mmHg 38%
13:00 +17°C° 0 mm 5 mps 732 mmHg 36%
14:00 +19°C° 0 mm 6 mps 732 mmHg 35%
15:00 +19°C° 0 mm 6 mps 732 mmHg 34%
16:00 +17°C° 0 mm 6 mps 732 mmHg 38%
17:00 +16°C° 0 mm 6 mps 732 mmHg 42%
18:00 +14°C° 0 mm 5 mps 732 mmHg 46%
19:00 +14°C° 0 mm 6 mps 732 mmHg 47%
20:00 +13°C° 0 mm 6 mps 732 mmHg 49%
21:00 +13°C° 0 mm 6 mps 732 mmHg 50%
22:00 +11°C° 0 mm 6 mps 731 mmHg 57%
23:00 +10°C° 0 mm 6 mps 731 mmHg 64%
Show more